Starlink 32128

operational
NORAD ID: 60272 Int'l Des: 2024-131 Owner: SPXS Country: US Constellation: starlink
LEOCIRCULAR

Starlink 32128について

説明を読み込み中...

リアルタイム位置

3D地球を読み込み中...

次回通過

高度履歴

Altitude vs Time

uPlot chart will show altitude changes over time

軌道要素

1 60272U 24131T 25351.66954315 -.00001335 00000-0 -32981-4 0 9994
2 60272 53.1601 73.2164 0000962 88.4094 271.7017 15.30189359 79160
Epoch: Dec 17, 2025 • Age: 20 hours

現在のステータス

高度 482.7 km
速度 7.62 km/s
衛星直下点 -24.56°S, 137.35°E
打ち上げ日 Jul 27, 2024
運用期間 1.3 years
タイプ internet

技術仕様

分類 Payload
質量 730.00 kg
乾燥質量 700.00 kg
総質量 730.00 kg
長さ 0.30 m
直径 4.10 m
スパン 29.00 m
形状 Box + pan
製造者 SPXS
バスタイプ Starlink V2M
フェーズステータス In Orbit
所有者/国 SPXS/US

大規模コンステレーション

Loading constellations...